Time,TemperatureF,DewpointF,PressureIn,WindDirection,WindDirectionDegrees,WindSpeedMPH,WindSpeedGustMPH,Humidity,HourlyPrecipIn,Conditions,Clouds,dailyrainin,SoftwareType,DateUTC
2013-03-23 00:02:00,39.0,18.0,29.97,SW,234,0.0,6.0,42,0.00,,,0.00,,2013-03-23 04:02:00,
2013-03-23 00:13:00,39.0,18.0,29.97,SW,234,0.0,6.0,42,0.00,,,0.00,,2013-03-23 04:13:00,
2013-03-23 00:23:00,39.0,18.0,29.98,NNE,26,1.0,5.0,43,0.00,,,0.00,,2013-03-23 04:23:00,
2013-03-23 00:32:00,39.0,18.0,29.98,NNE,26,1.0,5.0,43,0.00,,,0.00,,2013-03-23 04:32:00,
2013-03-23 00:43:00,39.0,18.0,29.98,NNE,26,1.0,5.0,43,0.00,,,0.00,,2013-03-23 04:43:00,
2013-03-23 00:53:00,39.0,18.0,29.98,NNE,26,1.0,5.0,43,0.00,,,0.00,,2013-03-23 04:53:00,
2013-03-23 01:02:00,38.0,18.0,29.97,NNE,24,0.0,1.0,43,0.00,,,0.00,,2013-03-23 05:02:00,
2013-03-23 01:12:00,38.0,18.0,29.97,NNE,24,0.0,1.0,43,0.00,,,0.00,,2013-03-23 05:12:00,
2013-03-23 01:22:00,38.0,19.0,29.97,NE,45,0.0,3.0,45,0.00,,,0.00,,2013-03-23 05:22:00,
2013-03-23 01:32:00,38.0,19.0,29.97,NE,44,0.0,0.0,46,0.00,,,0.00,,2013-03-23 05:32:00,
2013-03-23 01:42:00,38.0,19.0,29.97,NE,44,0.0,0.0,46,0.00,,,0.00,,2013-03-23 05:42:00,
2013-03-23 01:52:00,37.0,18.0,29.98,NE,55,0.0,2.0,46,0.00,,,0.00,,2013-03-23 05:52:00,
2013-03-23 02:02:00,37.0,19.0,29.98,NE,55,0.0,0.0,47,0.00,,,0.00,,2013-03-23 06:02:00,
2013-03-23 02:12:00,37.0,19.0,29.98,NE,55,0.0,0.0,47,0.00,,,0.00,,2013-03-23 06:12:00,
2013-03-23 02:22:00,37.0,19.0,29.97,NE,55,0.0,0.0,47,0.00,,,0.00,,2013-03-23 06:22:00,
2013-03-23 02:32:00,36.0,18.0,29.97,NE,55,0.0,0.0,47,0.00,,,0.00,,2013-03-23 06:32:00,
2013-03-23 02:42:00,36.0,18.0,29.97,NE,55,0.0,0.0,47,0.00,,,0.00,,2013-03-23 06:42:00,
2013-03-23 02:52:00,36.0,18.0,29.98,ENE,76,0.0,2.0,48,0.00,,,0.00,,2013-03-23 06:52:00,
2013-03-23 03:02:00,36.0,18.0,29.98,NE,55,1.0,2.0,48,0.00,,,0.00,,2013-03-23 07:02:00,
2013-03-23 03:12:00,36.0,18.0,29.98,NE,55,1.0,2.0,48,0.00,,,0.00,,2013-03-23 07:12:00,
2013-03-23 03:22:00,36.0,18.0,29.98,NE,55,1.0,2.0,48,0.00,,,0.00,,2013-03-23 07:22:00,
2013-03-23 03:30:00,35.0,19.0,29.96,ENE,61,1.0,2.0,51,0.00,,,0.00,,2013-03-23 07:30:00,
2013-03-23 03:32:00,36.0,18.0,29.98,NE,55,1.0,2.0,48,0.00,,,0.00,,2013-03-23 07:32:00,
2013-03-23 03:42:00,36.0,18.0,29.98,NE,55,1.0,2.0,48,0.00,,,0.00,,2013-03-23 07:42:00,
2013-03-23 03:52:00,35.0,19.0,29.96,ENE,61,1.0,2.0,51,0.00,,,0.00,,2013-03-23 07:52:00,
2013-03-23 04:03:00,35.0,19.0,29.96,ENE,61,1.0,2.0,51,0.00,,,0.00,,2013-03-23 08:03:00,
2013-03-23 04:13:00,35.0,19.0,29.96,ENE,61,1.0,2.0,51,0.00,,,0.00,,2013-03-23 08:13:00,
2013-03-23 04:22:00,35.0,19.0,29.96,ENE,61,1.0,2.0,51,0.00,,,0.00,,2013-03-23 08:22:00,
2013-03-23 04:53:00,35.0,19.0,29.95,ENE,68,0.0,0.0,52,0.00,,,0.00,,2013-03-23 08:53:00,
2013-03-23 05:02:00,35.0,20.0,29.96,ENE,78,1.0,2.0,53,0.00,,,0.00,,2013-03-23 09:02:00,
2013-03-23 05:12:00,35.0,20.0,29.96,ENE,78,1.0,2.0,53,0.00,,,0.00,,2013-03-23 09:12:00,
2013-03-23 05:22:00,34.0,20.0,29.96,ENE,59,1.0,2.0,55,0.00,,,0.00,,2013-03-23 09:22:00,
2013-03-23 05:33:00,34.0,20.0,29.96,ENE,59,1.0,2.0,55,0.00,,,0.00,,2013-03-23 09:33:00,
2013-03-23 05:42:00,34.0,20.0,29.96,ENE,59,1.0,2.0,55,0.00,,,0.00,,2013-03-23 09:42:00,
2013-03-23 05:53:00,35.0,19.0,29.96,ENE,68,1.0,2.0,52,0.00,,,0.00,,2013-03-23 09:53:00,
2013-03-23 06:03:00,35.0,19.0,29.96,ENE,68,1.0,2.0,52,0.00,,,0.00,,2013-03-23 10:03:00,
2013-03-23 06:13:00,35.0,19.0,29.96,ENE,68,1.0,2.0,52,0.00,,,0.00,,2013-03-23 10:13:00,
2013-03-23 06:23:00,34.0,20.0,29.96,NW,313,0.0,2.0,56,0.00,,,0.00,,2013-03-23 10:23:00,
2013-03-23 06:34:00,34.0,20.0,29.96,NW,313,0.0,2.0,56,0.00,,,0.00,,2013-03-23 10:34:00,
2013-03-23 06:43:00,34.0,20.0,29.96,NW,313,0.0,2.0,56,0.00,,,0.00,,2013-03-23 10:43:00,
2013-03-23 06:52:00,34.0,20.0,29.96,ENE,66,1.0,3.0,56,0.00,,,0.00,,2013-03-23 10:52:00,
2013-03-23 07:03:00,34.0,20.0,29.96,ENE,66,1.0,3.0,56,0.00,,,0.00,,2013-03-23 11:03:00,
2013-03-23 07:12:00,34.0,20.0,29.96,ENE,66,1.0,3.0,56,0.00,,,0.00,,2013-03-23 11:12:00,
2013-03-23 07:22:00,34.0,20.0,29.96,ENE,66,1.0,3.0,56,0.00,,,0.00,,2013-03-23 11:22:00,
2013-03-23 07:32:00,34.0,21.0,29.98,NE,34,0.0,0.0,59,0.00,,,0.00,,2013-03-23 11:32:00,
2013-03-23 07:42:00,34.0,20.0,29.99,South,176,1.0,2.0,57,0.00,,,0.00,,2013-03-23 11:42:00,
2013-03-23 07:52:00,34.0,20.0,29.99,South,176,1.0,2.0,57,0.00,,,0.00,,2013-03-23 11:52:00,
2013-03-23 08:02:00,34.0,20.0,29.99,South,176,1.0,2.0,57,0.00,,,0.00,,2013-03-23 12:02:00,
2013-03-23 08:13:00,34.0,20.0,29.99,South,176,1.0,2.0,57,0.00,,,0.00,,2013-03-23 12:13:00,
2013-03-23 08:22:00,35.0,22.0,29.98,NE,54,0.0,1.0,58,0.00,,,0.00,,2013-03-23 12:22:00,
2013-03-23 08:33:00,35.0,22.0,29.98,NE,54,0.0,1.0,58,0.00,,,0.00,,2013-03-23 12:33:00,
2013-03-23 08:43:00,35.0,22.0,29.98,NE,54,0.0,1.0,58,0.00,,,0.00,,2013-03-23 12:43:00,
2013-03-23 08:53:00,35.0,22.0,29.98,NE,54,0.0,1.0,58,0.00,,,0.00,,2013-03-23 12:53:00,
2013-03-23 09:03:00,35.0,23.0,30.00,SW,222,0.0,0.0,60,0.00,,,0.00,,2013-03-23 13:03:00,
2013-03-23 09:12:00,35.0,23.0,30.00,SW,222,0.0,0.0,60,0.00,,,0.00,,2013-03-23 13:12:00,
2013-03-23 09:23:00,36.0,22.0,30.01,SW,222,0.0,0.0,57,0.00,,,0.00,,2013-03-23 13:23:00,
2013-03-23 09:33:00,36.0,22.0,30.01,SW,222,0.0,0.0,57,0.00,,,0.00,,2013-03-23 13:33:00,
2013-03-23 09:42:00,36.0,22.0,30.01,SW,222,0.0,0.0,57,0.00,,,0.00,,2013-03-23 13:42:00,
2013-03-23 09:53:00,36.0,23.0,30.01,ENE,59,0.0,3.0,59,0.00,,,0.00,,2013-03-23 13:53:00,
2013-03-23 10:03:00,37.0,24.0,30.01,ENE,57,1.0,2.0,58,0.00,,,0.00,,2013-03-23 14:03:00,
2013-03-23 10:12:00,37.0,24.0,30.01,ENE,57,1.0,2.0,58,0.00,,,0.00,,2013-03-23 14:12:00,
2013-03-23 10:22:00,37.0,23.0,30.00,NE,49,0.0,3.0,56,0.00,,,0.00,,2013-03-23 14:22:00,
2013-03-23 10:32:00,38.0,24.0,29.99,ENE,59,3.0,5.0,56,0.00,,,0.00,,2013-03-23 14:32:00,
2013-03-23 10:43:00,38.0,24.0,29.99,ENE,59,3.0,5.0,56,0.00,,,0.00,,2013-03-23 14:43:00,
2013-03-23 10:53:00,40.0,25.0,30.00,NE,55,0.0,6.0,54,0.00,,,0.00,,2013-03-23 14:53:00,
2013-03-23 11:03:00,40.0,25.0,30.00,NE,55,0.0,6.0,54,0.00,,,0.00,,2013-03-23 15:03:00,
2013-03-23 11:12:00,40.0,25.0,30.00,NE,55,0.0,6.0,54,0.00,,,0.00,,2013-03-23 15:12:00,
2013-03-23 11:22:00,42.0,22.0,30.01,ENE,61,1.0,5.0,45,0.00,,,0.00,,2013-03-23 15:22:00,
2013-03-23 11:33:00,43.0,23.0,30.00,ENE,69,1.0,6.0,45,0.00,,,0.00,,2013-03-23 15:33:00,
2013-03-23 11:44:00,43.0,23.0,30.00,ENE,69,1.0,6.0,45,0.00,,,0.00,,2013-03-23 15:44:00,
2013-03-23 11:53:00,43.0,23.0,30.00,ENE,69,1.0,6.0,45,0.00,,,0.00,,2013-03-23 15:53:00,
2013-03-23 12:03:00,43.0,23.0,30.00,ENE,69,1.0,6.0,45,0.00,,,0.00,,2013-03-23 16:03:00,
2013-03-23 12:13:00,43.0,23.0,30.00,ENE,69,1.0,6.0,45,0.00,,,0.00,,2013-03-23 16:13:00,
2013-03-23 13:03:00,49.0,25.0,29.97,ENE,61,2.0,9.0,38,0.00,,,0.00,,2013-03-23 17:03:00,
2013-03-23 13:12:00,49.0,25.0,29.97,ENE,61,2.0,9.0,38,0.00,,,0.00,,2013-03-23 17:12:00,
2013-03-23 13:23:00,49.0,25.0,29.97,ENE,61,2.0,9.0,38,0.00,,,0.00,,2013-03-23 17:23:00,
2013-03-23 13:33:00,49.0,25.0,29.97,ENE,61,2.0,9.0,38,0.00,,,0.00,,2013-03-23 17:33:00,
2013-03-23 13:42:00,49.0,25.0,29.97,ENE,61,2.0,9.0,38,0.00,,,0.00,,2013-03-23 17:42:00,
2013-03-23 14:23:00,50.0,25.0,29.95,WSW,252,3.0,12.0,38,0.00,,,0.00,,2013-03-23 18:23:00,
2013-03-23 14:32:00,51.0,26.0,29.94,NW,316,2.0,7.0,38,0.00,,,0.00,,2013-03-23 18:32:00,
2013-03-23 14:43:00,51.0,26.0,29.94,NW,316,2.0,7.0,38,0.00,,,0.00,,2013-03-23 18:43:00,
2013-03-23 14:53:00,51.0,26.0,29.94,NW,316,2.0,7.0,38,0.00,,,0.00,,2013-03-23 18:53:00,
2013-03-23 15:03:00,55.0,27.0,29.93,NW,325,1.0,10.0,34,0.00,,,0.00,,2013-03-23 19:03:00,
2013-03-23 15:13:00,55.0,27.0,29.93,NW,325,1.0,10.0,34,0.00,,,0.00,,2013-03-23 19:13:00,
2013-03-23 15:23:00,56.0,28.0,29.93,NW,304,3.0,9.0,34,0.00,,,0.00,,2013-03-23 19:23:00,
2013-03-23 15:32:00,57.0,27.0,29.92,North,4,2.0,9.0,32,0.00,,,0.00,,2013-03-23 19:32:00,
2013-03-23 15:42:00,57.0,27.0,29.92,North,4,2.0,9.0,32,0.00,,,0.00,,2013-03-23 19:42:00,
2013-03-23 15:53:00,56.0,27.0,29.92,WNW,283,1.0,8.0,33,0.00,,,0.00,,2013-03-23 19:53:00,
2013-03-23 16:03:00,54.0,26.0,29.91,West,280,4.0,12.0,34,0.00,,,0.00,,2013-03-23 20:03:00,
2013-03-23 16:13:00,54.0,26.0,29.91,West,280,4.0,12.0,34,0.00,,,0.00,,2013-03-23 20:13:00,
2013-03-23 16:22:00,54.0,26.0,29.91,West,280,4.0,12.0,34,0.00,,,0.00,,2013-03-23 20:22:00,
2013-03-23 16:32:00,54.0,26.0,29.91,West,280,4.0,12.0,34,0.00,,,0.00,,2013-03-23 20:32:00,
2013-03-23 16:42:00,54.0,26.0,29.91,West,280,4.0,12.0,34,0.00,,,0.00,,2013-03-23 20:42:00,
2013-03-23 17:33:00,56.0,30.0,29.88,NNE,29,2.0,9.0,37,0.00,,,0.00,,2013-03-23 21:33:00,
2013-03-23 17:43:00,56.0,30.0,29.88,NNE,29,2.0,9.0,37,0.00,,,0.00,,2013-03-23 21:43:00,
2013-03-23 17:54:00,56.0,30.0,29.88,NNE,29,2.0,9.0,37,0.00,,,0.00,,2013-03-23 21:54:00,
2013-03-23 18:03:00,56.0,30.0,29.88,NNE,29,2.0,9.0,37,0.00,,,0.00,,2013-03-23 22:03:00,
2013-03-23 18:13:00,56.0,30.0,29.88,NNE,29,2.0,9.0,37,0.00,,,0.00,,2013-03-23 22:13:00,
2013-03-23 18:33:00,54.0,30.0,29.88,North,9,3.0,10.0,40,0.00,,,0.00,,2013-03-23 22:33:00,
2013-03-23 18:43:00,54.0,30.0,29.88,North,9,3.0,10.0,40,0.00,,,0.00,,2013-03-23 22:43:00,
2013-03-23 18:53:00,54.0,30.0,29.88,North,10,3.0,8.0,40,0.00,,,0.00,,2013-03-23 22:53:00,
2013-03-23 19:02:00,54.0,30.0,29.88,North,10,3.0,8.0,40,0.00,,,0.00,,2013-03-23 23:02:00,
2013-03-23 19:13:00,54.0,30.0,29.88,North,10,3.0,8.0,40,0.00,,,0.00,,2013-03-23 23:13:00,
2013-03-23 19:23:00,54.0,30.0,29.88,North,10,3.0,8.0,40,0.00,,,0.00,,2013-03-23 23:23:00,
2013-03-23 19:33:00,52.0,29.0,29.88,NNE,31,1.0,5.0,41,0.00,,,0.00,,2013-03-23 23:33:00,
2013-03-23 19:43:00,52.0,29.0,29.88,NNE,31,1.0,5.0,41,0.00,,,0.00,,2013-03-23 23:43:00,
2013-03-23 19:53:00,52.0,29.0,29.88,NNE,31,1.0,5.0,41,0.00,,,0.00,,2013-03-23 23:53:00,
2013-03-23 20:02:00,52.0,29.0,29.88,NNE,31,1.0,5.0,41,0.00,,,0.00,,2013-03-24 00:02:00,
2013-03-23 20:13:00,52.0,29.0,29.88,NNE,31,1.0,5.0,41,0.00,,,0.00,,2013-03-24 00:13:00,
2013-03-23 20:23:00,50.0,27.0,29.90,NE,52,1.0,2.0,41,0.00,,,0.00,,2013-03-24 00:23:00,
2013-03-23 20:33:00,50.0,27.0,29.90,NE,52,1.0,2.0,41,0.00,,,0.00,,2013-03-24 00:33:00,
2013-03-23 20:42:00,50.0,27.0,29.90,NE,52,1.0,2.0,41,0.00,,,0.00,,2013-03-24 00:42:00,
2013-03-23 20:53:00,49.0,27.0,29.90,NE,50,2.0,3.0,42,0.00,,,0.00,,2013-03-24 00:53:00,
2013-03-23 21:02:00,49.0,27.0,29.90,NE,53,1.0,5.0,42,0.00,,,0.00,,2013-03-24 01:02:00,
2013-03-23 21:12:00,49.0,27.0,29.90,NE,53,1.0,5.0,42,0.00,,,0.00,,2013-03-24 01:12:00,
2013-03-23 21:22:00,49.0,27.0,29.91,NNW,347,1.0,5.0,42,0.00,,,0.00,,2013-03-24 01:22:00,
2013-03-23 21:32:00,49.0,27.0,29.91,NNW,347,1.0,5.0,42,0.00,,,0.00,,2013-03-24 01:32:00,
2013-03-23 21:42:00,49.0,27.0,29.91,NNW,347,1.0,5.0,42,0.00,,,0.00,,2013-03-24 01:42:00,
2013-03-23 21:53:00,48.0,26.0,29.92,WNW,297,1.0,6.0,42,0.00,,,0.00,,2013-03-24 01:53:00,
2013-03-23 22:03:00,48.0,27.0,29.92,WNW,301,0.0,3.0,43,0.00,,,0.00,,2013-03-24 02:03:00,
2013-03-23 22:12:00,48.0,27.0,29.92,WNW,301,0.0,3.0,43,0.00,,,0.00,,2013-03-24 02:12:00,
2013-03-23 22:22:00,47.0,26.0,29.92,SSE,163,1.0,2.0,44,0.00,,,0.00,,2013-03-24 02:22:00,
2013-03-23 22:32:00,47.0,26.0,29.93,SSW,210,2.0,3.0,44,0.00,,,0.00,,2013-03-24 02:32:00,
2013-03-23 22:42:00,47.0,26.0,29.93,SSW,210,2.0,3.0,44,0.00,,,0.00,,2013-03-24 02:42:00,
2013-03-23 22:52:00,47.0,26.0,29.93,ENE,62,0.0,5.0,44,0.00,,,0.00,,2013-03-24 02:52:00,
2013-03-23 23:02:00,47.0,26.0,29.93,ENE,62,0.0,5.0,44,0.00,,,0.00,,2013-03-24 03:02:00,
2013-03-23 23:12:00,47.0,26.0,29.93,ENE,62,0.0,5.0,44,0.00,,,0.00,,2013-03-24 03:12:00,
2013-03-23 23:23:00,46.0,26.0,29.92,ENE,66,0.0,2.0,45,0.00,,,0.00,,2013-03-24 03:23:00,
2013-03-23 23:33:00,46.0,26.0,29.91,ENE,59,0.0,1.0,46,0.00,,,0.00,,2013-03-24 03:33:00,
2013-03-23 23:43:00,46.0,26.0,29.91,ENE,59,0.0,1.0,46,0.00,,,0.00,,2013-03-24 03:43:00,
2013-03-23 23:53:00,46.0,26.0,29.91,ENE,59,0.0,1.0,46,0.00,,,0.00,,2013-03-24 03:53:00,